Daviess Cnty AP, Washington,, IN

3:13 PM EDT on September 22, 2019 (GMT -0400)
Daviess County

Weather History for KDCY - July, 2019

Change the Weather History Date:

Wednesday, July 17, 2019

  Actual Average (KLWV) Record (KLWV)
Temperature  
Mean Temperature 81 °F -  
Max Temperature 89 °F 85 °F 98 °F (2012)
Min Temperature 73 °F 65 °F 54 °F (2014)
Cooling Degree Days 16    
Growing Degree Days 31 (Base 50)    
Moisture  
Dew Point 76 °F    
Average Humidity 87    
Maximum Humidity 100    
Minimum Humidity 63    
Precipitation  
Precipitation 0.15 in - - ()
Sea Level Pressure  
Sea Level Pressure 29.94 in    
Wind  
Wind Speed 8 mph (WSW)    
Max Wind Speed 12 mph    
Max Gust Speed 17 mph    
Visibility 9 miles    
Events Rain    
Averages and records for this station are not official NWS values.
T = Trace of Precipitation, MM = Missing Value Source: NWS Daily Summary

Daily Weather History Graph

Daily Weather History Graph

Search for Another Location

Airport or City:

Astronomy

Jul. 17, 2019 Rise Set
Actual Time 6:37 AM EDT 9:11 PM EDT
Civil Twilight 6:06 AM EDT 9:42 PM EDT
Nautical Twilight 5:28 AM EDT 10:20 PM EDT
Astronomical Twilight 4:45 AM EDT 11:03 PM EDT
Moon 10:00 PM EDT (7/17) 7:09 AM EDT (7/17)
Length of Visible Light 15h 35m
Length of Day
14h 34m
Waxing Gibbous, 99% of the Moon is Illuminated
Jul 17
Waxing Gibbous
Jul 24
Last Quarter
Jul 31
New
Aug 7
First Quarter
Aug 15
Full

Hourly Weather History & Observations

Time (EDT) Temp. Heat Index Dew Point Humidity Pressure Visibility Wind Dir Wind Speed Gust Speed Precip Events Conditions
12:15 AM 73.6 °F - 73.4 °F 99% 29.92 in 7.0 mi SSW 9.2 mph - N/A   Heavy Drizzle
12:35 AM 73.6 °F - 73.4 °F 99% 29.92 in 7.0 mi SSW 4.6 mph - N/A Rain Light Rain
12:55 AM 73.6 °F - 73.4 °F 99% 29.92 in 4.0 mi SSW 11.5 mph - 0.02 in   Heavy Drizzle
1:15 AM 73.6 °F - 73.4 °F 99% 29.92 in 10.0 mi SW 8.1 mph - 0.01 in   Overcast
1:35 AM 73.8 °F - 73.6 °F 99% 29.92 in 10.0 mi SW 8.1 mph - 0.01 in   Overcast
1:55 AM 73.8 °F - 73.6 °F 99% 29.91 in 10.0 mi SSW 8.1 mph - 0.01 in   Overcast
2:15 AM 73.9 °F - 73.6 °F 99% 29.91 in 10.0 mi SW 9.2 mph - N/A   Overcast
2:35 AM 73.9 °F - 73.6 °F 99% 29.91 in 10.0 mi SW 6.9 mph - N/A   Overcast
2:55 AM 73.6 °F - 73.4 °F 99% 29.90 in 5.0 mi WSW 4.6 mph - 0.12 in Rain Light Rain
3:15 AM 73.9 °F - 73.6 °F 99% 29.90 in 10.0 mi WSW 8.1 mph - N/A   Overcast
3:35 AM 73.9 °F - 73.8 °F 99% 29.90 in 10.0 mi SW 9.2 mph - N/A   Overcast
3:55 AM 74.3 °F - 73.8 °F 98% 29.90 in 7.0 mi SW 9.2 mph - N/A   Overcast
4:15 AM 74.3 °F - 73.9 °F 99% 29.90 in 7.0 mi SW 8.1 mph - N/A   Overcast
4:35 AM 74.3 °F - 73.9 °F 99% 29.90 in 7.0 mi WSW 6.9 mph - N/A   Overcast
4:55 AM 74.3 °F - 73.9 °F 99% 29.91 in 7.0 mi WSW 6.9 mph - N/A   Overcast
5:15 AM 74.3 °F - 74.1 °F 99% 29.91 in 7.0 mi WSW 6.9 mph - N/A   Overcast
5:35 AM 74.5 °F - 74.3 °F 99% 29.92 in 7.0 mi WSW 6.9 mph - N/A   Overcast
5:55 AM 74.5 °F - 74.3 °F 99% 29.92 in 7.0 mi WSW 6.9 mph - N/A   Overcast
6:15 AM 74.5 °F - 74.3 °F 99% 29.92 in 7.0 mi WSW 9.2 mph - N/A Rain Rain
6:35 AM 74.5 °F - 74.3 °F 99% 29.92 in 7.0 mi WSW 8.1 mph - N/A   Overcast
6:55 AM 74.5 °F - 74.3 °F 99% 29.93 in 5.0 mi WSW 8.1 mph - N/A   Overcast
7:15 AM 74.7 °F - 74.3 °F 99% 29.93 in 5.0 mi WSW 6.9 mph - N/A   Overcast
7:35 AM 74.8 °F - 74.5 °F 99% 29.93 in 7.0 mi WSW 6.9 mph - N/A   Overcast
7:55 AM 75.0 °F - 74.7 °F 99% 29.94 in 5.0 mi WSW 5.8 mph - N/A   Overcast
8:15 AM 75.4 °F - 75.2 °F 99% 29.95 in 7.0 mi WSW 6.9 mph - N/A   Overcast
8:35 AM 76.3 °F - 76.1 °F 99% 29.95 in 7.0 mi WSW 6.9 mph - N/A   Mostly Cloudy
8:55 AM 77.0 °F - 77.0 °F 100% 29.95 in 10.0 mi WSW 9.2 mph - N/A   Scattered Clouds
9:15 AM 77.4 °F - 77.2 °F 99% 29.95 in 10.0 mi WSW 9.2 mph - N/A   Mostly Cloudy
9:35 AM 77.9 °F - 77.4 °F 98% 29.96 in 10.0 mi WSW 10.4 mph - N/A   Overcast
9:55 AM 78.3 °F - 77.9 °F 99% 29.97 in 10.0 mi WSW 8.1 mph - N/A   Overcast
10:15 AM 78.1 °F - 77.9 °F 99% 29.97 in 10.0 mi WSW 8.1 mph - N/A   Overcast
10:35 AM 79.7 °F - 78.3 °F 95% 29.97 in 10.0 mi West 8.1 mph - N/A   Mostly Cloudy
10:55 AM 80.4 °F 87.2 °F 77.9 °F 92% 29.98 in 10.0 mi West 5.8 mph - N/A   Mostly Cloudy
11:15 AM 81.9 °F 89.2 °F 76.3 °F 83% 29.98 in 10.0 mi WNW 5.8 mph - N/A   Mostly Cloudy
11:35 AM 81.5 °F 88.7 °F 76.5 °F 85% 29.98 in 10.0 mi West 6.9 mph - N/A Rain Light Rain
11:55 AM 82.4 °F 89.5 °F 75.2 °F 79% 29.98 in 10.0 mi WSW 4.6 mph 9.2 mph N/A   Mostly Cloudy
12:15 PM - - - N/A% 29.98 in 10.0 mi WSW 4.6 mph - N/A   Scattered Clouds
12:35 PM 84.0 °F 92.6 °F 75.7 °F 76% 29.98 in 10.0 mi West 6.9 mph - N/A   Mostly Cloudy
12:55 PM 84.4 °F 92.7 °F 75.4 °F 74% 29.98 in 10.0 mi West 9.2 mph - N/A   Mostly Cloudy
1:15 PM 84.0 °F 91.5 °F 74.7 °F 73% 29.97 in 10.0 mi WSW 6.9 mph - N/A   Mostly Cloudy
1:35 PM 86.0 °F 95.1 °F 75.4 °F 70% 29.97 in 10.0 mi West 11.5 mph - N/A   Scattered Clouds
1:55 PM 86.5 °F 96.4 °F 75.7 °F 70% 29.97 in 10.0 mi West 8.1 mph - N/A   Clear
2:15 PM 85.5 °F 94.2 °F 75.0 °F 71% 29.97 in 10.0 mi West 8.1 mph - N/A   Mostly Cloudy
2:35 PM 86.4 °F 94.2 °F 73.9 °F 66% 29.96 in 10.0 mi WSW 8.1 mph 17.3 mph N/A   Mostly Cloudy
2:55 PM 87.3 °F 96.8 °F 75.0 °F 67% 29.96 in 10.0 mi WSW 8.1 mph 16.1 mph N/A   Mostly Cloudy
3:15 PM 88.7 °F 98.7 °F 75.2 °F 64% 29.96 in 10.0 mi West 10.4 mph - N/A   Scattered Clouds
3:35 PM 88.2 °F 97.4 °F 74.5 °F 64% 29.95 in 10.0 mi West 9.2 mph - N/A   Scattered Clouds
3:55 PM 88.5 °F 98.3 °F 74.8 °F 64% 29.95 in 10.0 mi SW 9.2 mph - N/A   Mostly Cloudy
4:15 PM 88.7 °F 98.2 °F 74.7 °F 63% 29.94 in 10.0 mi West 9.2 mph 16.1 mph N/A   Scattered Clouds
4:35 PM 88.7 °F 99.3 °F 75.4 °F 65% 29.94 in 10.0 mi WSW 9.2 mph - N/A   Clear
4:55 PM 89.1 °F 99.1 °F 75.2 °F 63% 29.93 in 10.0 mi West 10.4 mph - N/A   Scattered Clouds
5:15 PM 88.5 °F 98.3 °F 74.8 °F 64% 29.93 in 10.0 mi West 8.1 mph - N/A   Scattered Clouds
5:35 PM 88.9 °F 98.6 °F 74.8 °F 63% 29.93 in 10.0 mi West 10.4 mph - N/A   Scattered Clouds
5:55 PM 88.5 °F 98.8 °F 75.6 °F 65% 29.93 in 10.0 mi West 5.8 mph - N/A   Scattered Clouds
6:15 PM 87.8 °F 97.6 °F 75.0 °F 66% 29.93 in 10.0 mi West 4.6 mph - N/A   Scattered Clouds
6:35 PM 88.2 °F 98.0 °F 75.0 °F 65% 29.93 in 10.0 mi West 6.9 mph - N/A   Mostly Cloudy
6:55 PM 88.3 °F 97.4 °F 74.5 °F 63% 29.92 in 10.0 mi West 6.9 mph - N/A   Scattered Clouds
7:15 PM 86.7 °F 95.9 °F 75.2 °F 68% 29.92 in 10.0 mi West 3.5 mph - N/A   Scattered Clouds
7:35 PM - - - N/A% 29.92 in 10.0 mi WSW 5.8 mph - N/A   Mostly Cloudy
7:55 PM 86.2 °F 95.5 °F 75.4 °F 70% 29.93 in 10.0 mi West 4.6 mph - N/A   Scattered Clouds
8:15 PM 84.7 °F 94.8 °F 76.6 °F 77% 29.93 in 10.0 mi West 4.6 mph - N/A   Scattered Clouds
8:35 PM 82.8 °F 92.2 °F 77.9 °F 85% 29.94 in 10.0 mi West 4.6 mph - N/A   Scattered Clouds
8:55 PM 82.0 °F 90.8 °F 77.9 °F 87% 29.94 in 10.0 mi WSW 3.5 mph - N/A   Scattered Clouds
9:15 PM 80.6 °F 88.3 °F 79.2 °F 95% 29.94 in 10.0 mi WSW 3.5 mph - N/A   Clear
9:35 PM 79.9 °F - 79.7 °F 99% 29.94 in 10.0 mi West 4.6 mph - N/A   Clear
9:55 PM 79.9 °F - 79.3 °F 98% 29.95 in 10.0 mi WSW 4.6 mph - N/A   Scattered Clouds
10:15 PM 79.7 °F - 79.2 °F 98% 29.95 in 10.0 mi SW 5.8 mph - N/A   Mostly Cloudy
10:35 PM 80.1 °F 86.4 °F 78.3 °F 94% 29.95 in 10.0 mi WSW 4.6 mph - N/A   Scattered Clouds
10:55 PM 79.5 °F - 78.8 °F 98% 29.94 in 10.0 mi WSW 3.5 mph - N/A   Clear
11:15 PM 78.8 °F - 78.3 °F 98% 29.93 in 10.0 mi SSW 4.6 mph - N/A   Scattered Clouds
11:35 PM 78.4 °F - 78.1 °F 99% 29.93 in 10.0 mi Calm Calm - N/A   Scattered Clouds
11:55 PM 77.7 °F - 77.4 °F 99% 29.91 in 10.0 mi SSE 4.6 mph - N/A   Scattered Clouds